[sarex] 2 Line ISS Keps 10-3

Dave Larsen PhD doc at volcano.net
Mon Oct 2 20:05:08 PDT 2006


ISS
1 25544U 98067A   06275.48181713  .00021761  00000-0  13733-3 0  7842
2 25544 051.6376 354.7407 0012860 050.9711 139.6455 15.76471503450089


More information about the SAREX mailing list